Location: Trois-Rivi�res
(46.3500°N, 72.5500°W)
Time: 07:15:17
(UTC-04:00)

Tiangong 2 - Pass Details

Date: 15 October 2017
Orbit: 388 x 391 km, 42.8° (Epoch: 24 October)

Event Time Altitude Azimuth Distance (km) Brightness Sun altitude
Exits shadow 05:35:47 37° 217° (SW) 621 1.7 -16.6°
Maximum altitude 05:36:24 43° 184° (S) 562 1.8 -16.5°
Drops below altitude 10° 05:39:27 10° 111° (ESE) 1,421 5.0 -16.0°
Sets 05:41:35 0° 104° (ESE) 2,276 6.4 -15.6°
